[ hide orbit diagram ]
For accurate long-term ephemerides, please instead use our Horizons system.This orbit viewer was implemented using two-body methods, and hence should not be used for determining accurate long-term trajectories (over several years or decades) or planetary encounter circumstances.
Orbital Elements at Epoch 2459000.5 (2020-May-31.0) TDB
Reference: JPL 17 (heliocentric ecliptic J2000)
Element | Value | Uncertainty (1-sigma) | Units |
e | .02536738696605578 | 6.2439e-08 | |
a | 2.692767416225888 | 2.0476e-08 | au |
q | 2.6244589431689 | 1.7653e-07 | au |
i | 13.28298881538652 | 8.0963e-06 | deg |
node | 357.831350717947 | 1.7698e-05 | deg |
peri | 325.1177103114774 | 0.00011886 | deg |
M | 241.5445810765839 | 0.00011798 | deg |
tp | 2459531.566766081255 (2021-Nov-13.06676608) | 0.0005288 | TDB |
period | 1613.974586615208 4.42 | 1.8409e-05 5.04e-08 | d yr |
n | .2230518392207055 | 2.5441e-09 | deg/d |
Q | 2.761075889282876 | 2.0995e-08 | au |
|
| | Orbit Determination Parameters
Additional Information
|
[ show covariance matrix ]
Physical Parameter Table
Parameter |
Symbol |
Value |
Units |
Sigma |
Reference |
Notes |
absolute magnitude |
H |
15.7 |
|
n/a |
MPO381974 |
|
|
120588 (1995 SK34) Discovered 1995-Sep-22 by Spacewatch at Kitt Peak |
Reference: 20060314/Numbers.arc | Last Updated: 2006-03-23 |
|
[ show close-approach data ]
|